Location: Newark
(44.3100°N, 0.7769°W)
Time: 19:18:43
(UTC+00:00)

Envisat - Pass Details

Date: 25 November 2019
Orbit: 764 x 766 km, 98.1° (Epoch: 15 December)

Event Time Altitude Azimuth Distance (km) Brightness Sun altitude
Rises 18:32:04 0° 184° (S) 3,218 6.4 -21.7°
Reaches altitude 10° 18:34:28 10° 191° (S) 2,297 5.7 -22.1°
Maximum altitude 18:39:16 43° 262° (W) 1,071 4.2 -23.0°
Drops below altitude 10° 18:44:07 10° 334° (NNW) 2,312 5.7 -23.8°
Sets 18:46:33 0° 341° (NNW) 3,242 6.4 -24.3°
